STARLINK-35462, 65877

Orbit data source: Space-Track

STARLINK-35462, 65877 is a payload satellite owned by SpaceX/Seattle (US) in LEO that was launched on Fri, 03 Oct 2025 UTC via an FALCON 9 launch vehicle from the Air Force Western Test Range (AFWTR). Payload-class satellites include a variety of spacecraft equipped with specific instruments for various scientific and technological missions. These include communications satellites like Starlink; space stations such as the ISS; scientific satellites like the Hubble; Earth observation satellites from companies like Planet Labs, Umbra, and HawkEye 360; GPS; miniature CubeSats for education and research; and military/defense satellites.

Loading next visibility...
Identifier
65877, 2025-223Z
Orbit
LEO
Country
Flag of USUS
Related business
Manufacturer
SpaceX/Seattle
Mission
Operational spacecraft
Bus & Motor
STARLINK V2MO, Unknown motor
Mass
575 kg wet, ~530 kg dry
Launch date (UTC)
2025-10-03 (2 weeks ago)
Launch vehicle
FALCON 9
Launch site
Air Force Western Test Range (AFWTR)
Object type
Payload
Rocket body
Debris
Shape & HBR
Unknown
Radar Cross Section
RCS unknown

Expand to show TLE details & history
Last TLE update: 8 hours ago

TLE from 8 hours ago
0 STARLINK-35462
1 65877U 25223Z   25291.20444455 -.00964636  00000-0 -88569-2 0  9998
2 65877  53.1574 240.0416 0002285 177.8105 182.2923 15.69482500  2338
Epoch: 2025-10-18T04:54Z
TLE epoch observation values (Epoch: 2025-10-18T04:54:24.009Z)
Latitude
-0.00002°
Longitude
139.50273°
Altitude
362.831 km
Speed
7.692 km/s
True Right ascension
16h 00m 09s
True Declination
0° 00' 00"
Sunlit
Object was in daylight at epoch
Visualization orbit readout
Latitude
Unknown
Longitude
Unknown
Altitude
Unknown
Speed
Unknown
Apparent Right ascension
Unknown
Apparent Declination
Unknown
Sunlit
N/A
Visualization observer readout
Local Sidereal Time
08:09:58
Azimuth
Unknown
Elevation
Unknown
Doppler factor
Unknown
Orbital elements
Apogee altitude
362.179 km
Perigee altitude
359.099 km
Semi-major axis
6,738.776 km
Eccentricity
0.00023
Inclination
53.1574°
RAAN
240.0416°
Arg. of periapsis
177.8105°
True anomaly
182.29125°
Mean anomaly
182.2923°
Eccentric anomaly
182.29178°
Mean motion
3.92348 °/min
Orbital period
91.76 mins
BSTAR
-0.0088569
Loading maneuver chart data...
Computing Atmospheric mass density...
Loading historical data...
Loading historical data...
Loading historical data...
Loading historical data...
Loading historical data...
Loading historical data...
Loading historical data...

Documentation

Showing up to 5 results
|